Flag for United Kingdom Weather past 2 weeks in Salisbury, England, United Kingdom

Now
45 °F

Fog.


Feels Like: 43 °F
Forecast: 49 / 63 °F
Wind: 3 mph from West

Location: Boscombe Down

Current Time: Sep 23, 2014 at 3:25:00 AM

Latest Report: Sep 23, 2014 at 2:50 AM


Visibility: 0 mi

Pressure: 30.21 "Hg

Humidity: 100%

Dew point: 45 °F

Location of SalisburyLocation

Historic Weather in Salisbury — Graph

°F

Salisbury temperature yesterday

Maximum temperature yesterday: 64 °F (at 1:50 PM)
Minimum temperature yesterday: 39 °F (at 7:08 AM)
Average temperature yesterday: 52 °F

Past Weeks' High & Low Weather Summary

 TemperatureHumidityPressure
High75 °F (Sep 16, 2:50 PM)100% (Sep 8, 6:50 AM)30.33 "Hg (Sep 8, 6:50 AM)
Low39 °F (Sep 22, 7:08 AM)46% (Sep 8, 3:50 PM)29.77 "Hg (Sep 18, 3:50 AM)
Average60 °F81%30.08 "Hg
* Reported Sep 8 1:50 AM — Sep 23 1:50 AM, Salisbury, Weather by CustomWeather, © 2014

Note: Actual official high and low records may vary slightly from our data, if they occured in-between our weather recording intervals... More about our weather records

Advertising

Salisbury weather history for previous 24 hours

 ConditionsComfort  
Time TempWeatherWind HumidityBarometerVisibility
1:50 AM
Sep 23
46 °FCool.3 mph100%30.21 "Hg2 mi
12:50 AM50 °FFog.3 mph94%30.24 "Hg0 mi
11:50 PM
Sep 22
50 °FFog.3 mph94%30.24 "Hg2 mi
10:50 PM50 °FFog.1 mph94%30.24 "Hg5 mi
9:50 PM52 °FHaze.6 mph88%30.27 "Hg5 mi
8:50 PM54 °FCool.5 mph82%30.27 "HgN/A
7:50 PM55 °FCool.5 mph77%30.27 "HgN/A
6:50 PM61 °FCool.5 mph63%30.24 "HgN/A
5:50 PM64 °FScattered clouds.8 mph52%30.24 "HgN/A
4:50 PM64 °FScattered clouds.6 mph52%30.24 "HgN/A
3:50 PM64 °FPartly sunny.7 mph60%30.27 "HgN/A
2:50 PM64 °FPartly sunny.7 mph56%30.27 "HgN/A
1:50 PM64 °FMild.7 mph52%30.30 "HgN/A
12:50 PM63 °FPassing clouds.6 mph56%30.30 "HgN/A
11:50 AM61 °FPartly sunny.6 mph63%30.30 "HgN/A
10:50 AM55 °FSunny.5 mph82%30.33 "Hg10 mi
10:20 AM54 °FPartly sunny.3 mph82%30.33 "Hg6 mi
9:50 AM50 °FPartly sunny.5 mph88%30.33 "Hg4 mi
9:12 AM48 °FPartly sunny.6 mph87%30.33 "Hg2 mi
8:50 AM46 °FSnow. Partly sunny.3 mph93%30.33 "Hg2 mi
8:39 AM45 °FSnow. Partly sunny.5 mph100%30.33 "Hg2 mi
7:50 AM43 °FSnow. Fog.7 mph93%30.33 "Hg2 mi
7:08 AM39 °FSleet. Fog.3 mph100%30.33 "Hg1 mi
6:50 AM43 °FFog.5 mph100%30.33 "Hg2 mi
6:20 AM43 °FFog.7 mph100%30.33 "Hg2 mi
5:50 AM43 °FFog.7 mph100%30.33 "Hg2 mi
4:50 AM41 °FFog.7 mph100%30.30 "Hg2 mi
3:50 AM45 °FFog.6 mph93%30.33 "Hg3 mi
Weather by CustomWeather, © 2014

See weather overviewHow to use our weather pages